Retour au catalogue

STARLINK-30822

ActifCommunicationsVLEO
NORAD 58193·PAYLOAD·🇺🇸 United States

Lancé Oct 30, 2023 depuis Cape Canaveral Space Force Station

Loading…

Prochains Passages (prochaines 24 heures)

TLE

FraisSource: CelesTrak SupGP

Époque: Sep 15, 2026, 01:35 UTC

1 58193C 23167U   26258.06645833  .00051228  00000+0  17248-2 0  2582
2 58193  43.0015 153.7842 0003918 235.7706 323.0040 15.29921904    17

Suivez STARLINK-30822 en temps réel avec AllMySat

Download on the App Store